Regional Weather Roundup
Issued by NWS

Home | Current Version | Previous Version | Graphics & Text | Print | Product List | Glossary On
Versions: 1 2 3 4 5 6 7 8 9 10 11 12 13 14 15 16 17 18 19 20 21 22 23 24 25 26 27 28 29 30 31 32 33 34 35 36 37 38 39 40 41 42 43 44 45 46 47 48 49 50
000
ASUS45 KCYS 080010
RWRWY

WYOMING REGIONAL WEATHER ROUNDUP
NATIONAL WEATHER SERVICE CHEYENNE WY
600 PM MDT TUE JUL 07 2015

NOTE:  "FAIR" INDICATES FEW OR NO CLOUDS BELOW 12,000 FEET
WITH NO SIGNIFICANT WEATHER AND/OR OBSTRUCTIONS TO VISIBILITY.

WYZ001-080100-
YELLOWSTONE NATIONAL PARK

CITY           SKY/WX    TMP DP  RH WIND       PRES   REMARKS
LK YELLOWSTONE   N/A     68  37  32 MISG      30.20F
6HR MIN TEMP:  59; 6HR MAX TEMP:  69;

W YELLOWSTONE  NOT AVBL

$$
WYZ002>013-054>058-071-098>099-080100-
NORTHERN WYOMING

CITY           SKY/WX    TMP DP  RH WIND       PRES   REMARKS
JACKSON        FAIR      75  43  31 CALM      30.07F
CODY           PTSUNNY   66  48  52 NW14      30.08S
GREYBULL       FAIR      84  40  21 NW23G31   29.93F
6HR MIN TEMP:  77; 6HR MAX TEMP:  88;

WORLAND        CLOUDY    70  49  47 NW18G37   29.97R THUNDER
6HR MIN TEMP:  72; 6HR MAX TEMP:  84;

SHERIDAN       PTSUNNY   75  53  46 NW10      30.02S
6HR MIN TEMP:  64; 6HR MAX TEMP:  77; 6HR PCP: TRACE;

BUFFALO        PTSUNNY   69  49  48 NW5       30.08S
6HR MIN TEMP:  61; 6HR MAX TEMP:  73; 6HR PCP:  0.04;

GILLETTE       CLOUDY    66  53  63 NW16      30.05R
6HR MIN TEMP:  66; 6HR MAX TEMP:  79; 6HR PCP: TRACE;

HULETT         CLOUDY    64  55  72 W12       30.07R
NEWCASTLE      FAIR      72  52  49 SE15      30.04S

$$
WYZ014>020-022>026-101>103-080100-
CENTRAL WYOMING

CITY           SKY/WX    TMP DP  RH WIND       PRES   REMARKS
BIG PINEY      CLOUDY    65  46  50 SE7       30.17R
6HR MIN TEMP:  63; 6HR MAX TEMP:  70; 6HR PCP: TRACE;

PINEDALE       MOCLDY    64  46  52 E7        30.18R
DUBOIS         FAIR      63  41  45 SE7       30.17R
LANDER         FAIR      71  46  40 W10       30.06F
6HR MIN TEMP:  70; 6HR MAX TEMP:  78;

RIVERTON       LGT RAIN  65  54  67 SE17G28   30.07R
6HR MIN TEMP:  65; 6HR MAX TEMP:  78; 6HR PCP: TRACE;

CASPER         CLOUDY    66  52  60 N8        30.10R
6HR MIN TEMP:  65; 6HR MAX TEMP:  79; 6HR PCP: TRACE;

DOUGLAS        PTSUNNY   73  52  47 SE13      30.06S
6HR MIN TEMP:  70; 6HR MAX TEMP:  78;


$$
WYZ021-027>030-104>119-080100-
SOUTHERN WYOMING

CITY           SKY/WX    TMP DP  RH WIND       PRES   REMARKS
EVANSTON       LGT RAIN  54  50  86 SE13      30.19F
6HR MIN TEMP:  53; 6HR MAX TEMP:  73; 6HR PCP:  0.16;

KEMMERER       FAIR      63  45  51 W3        30.18S
FORT BRIDGER   PTCLDY    61  57  88 S7        30.20F
ROCK SPRINGS   TSTM      56  52  86 VRB5      30.18R FOG
6HR MIN TEMP:  54; 6HR MAX TEMP:  70; 6HR PCP:  0.23;

DIXON          CLOUDY    60  55  85 N9        30.17S
RAWLINS        LGT RAIN  56  53  90 E7        30.16S
6HR MIN TEMP:  56; 6HR MAX TEMP:  69; 6HR PCP:  0.18;

SARATOGA       RAIN      54  54 100 N5        30.20S
LARAMIE        LGT RAIN  55  53  93 S12       30.19S
6HR MIN TEMP:  55; 6HR MAX TEMP:  66; 6HR PCP:  0.15;

CHEYENNE       LGT RAIN  62  53  72 S12       30.14F
6HR MIN TEMP:  61; 6HR MAX TEMP:  65; 6HR PCP: TRACE;

TORRINGTON     FAIR      73  55  53 SE15G23   30.04F
6HR MIN TEMP:  67; 6HR MAX TEMP:  75;

PINE BLUFFS    CLOUDY    66  48  52 S13G20    30.12F

$$


USA.gov is the U.S. government's official web portal to all federal, state and local government web resources and services.